Погода в Брошнев-Осаде

Украина / Ивано-Франковская область     48°59′45″N   24°11′17″E
темп.,
°C
ветер,
м/с
пор.,
м/с
влажн.,
%
обл.,
%
осадки,
мм/ч
давл.,
гПа
погр.,
м
27 ноября, сб
сб2723:00+4ююв1176100 0.0 99319
02:00+5ю2278100 0.0 99248
05:00+7юз61575100 0.0 9921120
08:00+5зсз4872100 0.0 995263
11:00+7зсз36535 0.0 997391
14:00+9зюз595592 0.0 9981211
17:00+5ююз117194 0.0 99910
20:00+4ю11825 0.0 100111
28 ноября, вс
вс2823:00+3ююв22866 0.0 100118
02:00+4ююв2286100 0.0 100126
05:00+4ююв2286100 0.0 100033
08:00+5ю1187100 0.4 100012
11:00+6юз1185100 0.1 99930
14:00+8юв2481100 0.2 998143
17:00+7юв2283100 0.0 99726
20:00+6ююв3584100 0.0 99682
29 ноября, пн
пн2923:00+5ююв2284100 0.0 99433
02:00+6ююв2378100 0.0 99250
05:00+7юв1180100 0.1 98910
08:00+1сз71396100 0.7 993428
11:00+3сз5974100 1.0 995628
14:00+3сз7117561 1.1 996686
17:00+1зсз7137290 0.1 998736
20:00+1зсз5117324 0.1 1000628
30 ноября, вт
вт3023:00−1зсз6117637 0.0 1002520
02:000з6116968 0.0 1004877
05:00−1зсз5117069 0.0 1004510
08:00−1зсз6126978 0.0 1006644
11:00+1зсз6106497 0.0 10081256
14:00+1зсз696491 0.1 10071320
17:00−2зсз367830 0.0 1008121
20:00−1зюз410654 0.0 1006272
1 декабря, ср
ср123:00+1зюз8175898 0.0 1004939
02:00+2зюз102055100 0.0 10021097
05:00+1зюз101759100 0.0 1003789
08:00+1з71364100 0.0 1005805
11:00+4з7145995 0.0 10061549
14:00+4з61260100 0.1 10071450
17:00+3зюз51064100 0.0 1006337
20:00+2ююз3675100 0.0 1005165